Year,Month,Day,Hour,Minute,Value (Times are PST for temperature in C)
2015,08,23,00,00,18.80
2015,08,23,00,01,18.80
2015,08,23,00,02,18.80
2015,08,23,00,03,18.80
2015,08,23,00,04,18.80
2015,08,23,00,05,18.80
2015,08,23,00,06,18.90
2015,08,23,00,07,18.90
2015,08,23,00,08,18.90
2015,08,23,00,09,18.90
2015,08,23,00,10,18.90
2015,08,23,00,11,18.80
2015,08,23,00,12,18.80
2015,08,23,00,13,18.80
2015,08,23,00,14,18.80
2015,08,23,00,15,18.80
2015,08,23,00,16,18.80
2015,08,23,00,17,18.80
2015,08,23,00,18,18.80
2015,08,23,00,19,18.80
2015,08,23,00,20,18.90
2015,08,23,00,21,18.80
2015,08,23,00,22,18.90
2015,08,23,00,23,18.90
2015,08,23,00,24,18.90
2015,08,23,00,25,18.90
2015,08,23,00,26,18.90
2015,08,23,00,27,18.90
2015,08,23,00,28,18.90
2015,08,23,00,29,18.80
2015,08,23,00,30,18.80
2015,08,23,00,31,18.80
2015,08,23,00,32,18.80
2015,08,23,00,33,18.80
2015,08,23,00,34,18.70
2015,08,23,00,35,18.80
2015,08,23,00,36,18.70
2015,08,23,00,37,18.70
2015,08,23,00,38,18.70
2015,08,23,00,39,18.70
2015,08,23,00,40,18.60
2015,08,23,00,41,18.60
2015,08,23,00,42,18.60
2015,08,23,00,43,18.50
2015,08,23,00,44,18.50
2015,08,23,00,45,18.50
2015,08,23,00,46,18.40
2015,08,23,00,47,18.40
2015,08,23,00,48,18.40
2015,08,23,00,49,18.40
2015,08,23,00,50,18.30
2015,08,23,00,51,18.30
2015,08,23,00,52,18.30
2015,08,23,00,53,18.20
2015,08,23,00,54,18.20
2015,08,23,00,55,18.20
2015,08,23,00,56,18.10
2015,08,23,00,57,18.10
2015,08,23,00,58,18.00
2015,08,23,00,59,17.90
2015,08,23,01,00,17.90
2015,08,23,01,01,17.90
2015,08,23,01,02,17.80
2015,08,23,01,03,17.80
2015,08,23,01,04,17.80
2015,08,23,01,05,17.70
2015,08,23,01,06,17.70
2015,08,23,01,07,17.60
2015,08,23,01,08,17.60
2015,08,23,01,09,17.60
2015,08,23,01,10,17.60
2015,08,23,01,11,17.60
2015,08,23,01,12,17.50
2015,08,23,01,13,17.50
2015,08,23,01,14,17.50
2015,08,23,01,15,17.40
2015,08,23,01,16,17.40
2015,08,23,01,17,17.40
2015,08,23,01,18,17.40
2015,08,23,01,19,17.30
2015,08,23,01,20,17.30
2015,08,23,01,21,17.30
2015,08,23,01,22,17.20
2015,08,23,01,23,17.20
2015,08,23,01,24,17.20
2015,08,23,01,25,17.20
2015,08,23,01,26,17.10
2015,08,23,01,27,17.10
2015,08,23,01,28,17.10
2015,08,23,01,29,17.00
2015,08,23,01,30,17.00
2015,08,23,01,31,17.00
2015,08,23,01,32,16.90
2015,08,23,01,33,16.90
2015,08,23,01,34,16.90
2015,08,23,01,35,16.90
2015,08,23,01,36,16.90
2015,08,23,01,37,16.90
2015,08,23,01,38,16.90
2015,08,23,01,39,16.80
2015,08,23,01,40,16.80
2015,08,23,01,41,16.80
2015,08,23,01,42,16.80
2015,08,23,01,43,16.80
2015,08,23,01,44,16.80
2015,08,23,01,45,16.80
2015,08,23,01,46,16.80
2015,08,23,01,47,16.80
2015,08,23,01,48,16.80
2015,08,23,01,49,16.80
2015,08,23,01,50,16.80
2015,08,23,01,51,16.70
2015,08,23,01,52,16.70
2015,08,23,01,53,16.70
2015,08,23,01,54,16.70
2015,08,23,01,55,16.70
2015,08,23,01,56,16.70
2015,08,23,01,57,16.70
2015,08,23,01,58,16.70
2015,08,23,01,59,16.70
2015,08,23,02,00,16.70
2015,08,23,02,01,16.70
2015,08,23,02,02,16.80
2015,08,23,02,03,16.80
2015,08,23,02,04,16.80
2015,08,23,02,05,16.90
2015,08,23,02,06,16.90
2015,08,23,02,07,16.90
2015,08,23,02,08,17.00
2015,08,23,02,09,17.00
2015,08,23,02,10,16.90
2015,08,23,02,11,16.90
2015,08,23,02,12,16.80
2015,08,23,02,13,16.80
2015,08,23,02,14,16.70
2015,08,23,02,15,16.70
2015,08,23,02,16,16.60
2015,08,23,02,17,16.60
2015,08,23,02,18,16.60
2015,08,23,02,19,16.60
2015,08,23,02,20,16.60
2015,08,23,02,21,16.50
2015,08,23,02,22,16.50
2015,08,23,02,23,16.50
2015,08,23,02,24,16.50
2015,08,23,02,25,16.50
2015,08,23,02,26,16.40
2015,08,23,02,27,16.40
2015,08,23,02,28,16.40
2015,08,23,02,29,16.40
2015,08,23,02,30,16.30
2015,08,23,02,31,16.30
2015,08,23,02,32,16.30
2015,08,23,02,33,16.30
2015,08,23,02,34,16.30
2015,08,23,02,35,16.30
2015,08,23,02,36,16.30
2015,08,23,02,37,16.30
2015,08,23,02,38,16.30
2015,08,23,02,39,16.30
2015,08,23,02,40,16.30
2015,08,23,02,41,16.30
2015,08,23,02,42,16.30
2015,08,23,02,43,16.30
2015,08,23,02,44,16.40
2015,08,23,02,45,16.40
2015,08,23,02,46,16.40
2015,08,23,02,47,16.40
2015,08,23,02,48,16.50
2015,08,23,02,49,16.50
2015,08,23,02,50,16.60
2015,08,23,02,51,16.60
2015,08,23,02,52,16.60
2015,08,23,02,53,16.50
2015,08,23,02,54,16.50
2015,08,23,02,55,16.50
2015,08,23,02,56,16.50
2015,08,23,02,57,16.40
2015,08,23,02,58,16.40
2015,08,23,02,59,16.40
2015,08,23,03,00,16.40
2015,08,23,03,01,16.40
2015,08,23,03,02,16.30
2015,08,23,03,06,16.30
2015,08,23,03,07,16.30
2015,08,23,03,08,16.30
2015,08,23,03,09,16.30
2015,08,23,03,10,16.30
2015,08,23,03,11,16.30
2015,08,23,03,12,16.40
2015,08,23,03,13,16.50
2015,08,23,03,14,16.50
2015,08,23,03,15,16.60
2015,08,23,03,16,16.70
2015,08,23,03,17,16.70
2015,08,23,03,18,16.80
2015,08,23,03,19,16.80
2015,08,23,03,20,16.90
2015,08,23,03,21,16.90
2015,08,23,03,22,17.00
2015,08,23,03,23,17.10
2015,08,23,03,24,17.10
2015,08,23,03,25,17.20
2015,08,23,03,26,17.20
2015,08,23,03,27,17.30
2015,08,23,03,28,17.30
2015,08,23,03,29,17.30
2015,08,23,03,30,17.30
2015,08,23,03,31,17.30
2015,08,23,03,32,17.40
2015,08,23,03,33,17.40
2015,08,23,03,34,17.50
2015,08,23,03,35,17.60
2015,08,23,03,36,17.60
2015,08,23,03,37,17.70
2015,08,23,03,38,17.70
2015,08,23,03,39,17.70
2015,08,23,03,40,17.80
2015,08,23,03,41,17.80
2015,08,23,03,42,17.80
2015,08,23,03,43,17.80
2015,08,23,03,44,17.90
2015,08,23,03,45,17.90
2015,08,23,03,46,17.90
2015,08,23,03,47,17.90
2015,08,23,03,48,17.90
2015,08,23,03,49,18.00
2015,08,23,03,50,18.10
2015,08,23,03,51,18.10
2015,08,23,03,52,18.10
2015,08,23,03,53,18.10
2015,08,23,03,54,18.10
2015,08,23,03,55,18.10
2015,08,23,03,56,18.10
2015,08,23,03,57,18.10
2015,08,23,03,58,18.10
2015,08,23,03,59,18.10
2015,08,23,04,00,18.10
2015,08,23,04,01,18.10
2015,08,23,04,02,18.10
2015,08,23,04,03,18.10
2015,08,23,04,04,18.10
2015,08,23,04,05,18.10
2015,08,23,04,06,18.10
2015,08,23,04,07,18.10
2015,08,23,04,08,18.10
2015,08,23,04,09,18.10
2015,08,23,04,10,18.10
2015,08,23,04,11,18.10
2015,08,23,04,12,18.10
2015,08,23,04,13,18.10
2015,08,23,04,14,18.00
2015,08,23,04,15,18.00
2015,08,23,04,16,18.00
2015,08,23,04,17,18.00
2015,08,23,04,18,18.00
2015,08,23,04,19,18.00
2015,08,23,04,20,17.90
2015,08,23,04,21,17.90
2015,08,23,04,22,17.90
2015,08,23,04,23,17.90
2015,08,23,04,24,17.90
2015,08,23,04,25,17.90
2015,08,23,04,26,17.90
2015,08,23,04,27,17.90
2015,08,23,04,28,17.90
2015,08,23,04,29,17.90
2015,08,23,04,30,17.80
2015,08,23,04,31,17.80
2015,08,23,04,32,17.80
2015,08,23,04,33,17.80
2015,08,23,04,34,17.80
2015,08,23,04,35,17.80
2015,08,23,04,36,17.80
2015,08,23,04,37,17.80
2015,08,23,04,38,17.80
2015,08,23,04,39,17.80
2015,08,23,04,40,17.80
2015,08,23,04,41,17.80
2015,08,23,04,42,17.80
2015,08,23,04,43,17.80
2015,08,23,04,44,17.80
2015,08,23,04,45,17.80
2015,08,23,04,46,17.80
2015,08,23,04,47,17.80
2015,08,23,04,48,17.80
2015,08,23,04,49,17.80
2015,08,23,04,50,17.80
2015,08,23,04,51,17.80
2015,08,23,04,52,17.80
2015,08,23,04,53,17.80
2015,08,23,04,54,17.80
2015,08,23,04,55,17.80
2015,08,23,04,56,17.80
2015,08,23,04,57,17.80
2015,08,23,04,58,17.80
2015,08,23,04,59,17.90
2015,08,23,05,00,17.90
2015,08,23,05,01,17.90
2015,08,23,05,02,17.90
2015,08,23,05,03,17.90
2015,08,23,05,04,17.90
2015,08,23,05,05,17.90
2015,08,23,05,06,17.90
2015,08,23,05,07,17.90
2015,08,23,05,08,17.90
2015,08,23,05,09,17.90
2015,08,23,05,10,17.90
2015,08,23,05,11,17.90
2015,08,23,05,12,17.90
2015,08,23,05,13,17.90
2015,08,23,05,14,17.90
2015,08,23,05,15,17.80
2015,08,23,05,16,17.80
2015,08,23,05,17,17.80
2015,08,23,05,18,17.80
2015,08,23,05,19,17.80
2015,08,23,05,20,17.80
2015,08,23,05,21,17.80
2015,08,23,05,22,17.80
2015,08,23,05,23,17.80
2015,08,23,05,24,17.70
2015,08,23,05,25,17.70
2015,08,23,05,26,17.70
2015,08,23,05,27,17.70
2015,08,23,05,28,17.70
2015,08,23,05,29,17.70
2015,08,23,05,30,17.70
2015,08,23,05,31,17.60
2015,08,23,05,32,17.60
2015,08,23,05,33,17.60
2015,08,23,05,34,17.60
2015,08,23,05,35,17.60
2015,08,23,05,36,17.60
2015,08,23,05,37,17.60
2015,08,23,05,38,17.60
2015,08,23,05,39,17.50
2015,08,23,05,40,17.60
2015,08,23,05,41,17.50
2015,08,23,05,42,17.50
2015,08,23,05,43,17.50
2015,08,23,05,44,17.40
2015,08,23,05,45,17.40
2015,08,23,05,46,17.40
2015,08,23,05,47,17.40
2015,08,23,05,48,17.40
2015,08,23,05,49,17.40
2015,08,23,05,50,17.40
2015,08,23,05,51,17.40
2015,08,23,05,52,17.40
2015,08,23,05,53,17.40
2015,08,23,05,54,17.50
2015,08,23,05,55,17.50
2015,08,23,05,56,17.50
2015,08,23,05,57,17.50
2015,08,23,05,58,17.50
2015,08,23,05,59,17.50
2015,08,23,06,00,17.50
2015,08,23,06,01,17.50
2015,08,23,06,02,17.50
2015,08,23,06,03,17.50
2015,08,23,06,04,17.50
2015,08,23,06,05,17.50
2015,08,23,06,06,17.50
2015,08,23,06,07,17.50
2015,08,23,06,08,17.50
2015,08,23,06,09,17.50
2015,08,23,06,10,17.50
2015,08,23,06,11,17.50
2015,08,23,06,12,17.50
2015,08,23,06,13,17.50
2015,08,23,06,14,17.40
2015,08,23,06,15,17.40
2015,08,23,06,16,17.40
2015,08,23,06,17,17.40
2015,08,23,06,18,17.40
2015,08,23,06,19,17.40
2015,08,23,06,20,17.40
2015,08,23,06,21,17.40
2015,08,23,06,22,17.30
2015,08,23,06,23,17.30
2015,08,23,06,24,17.30
2015,08,23,06,25,17.30
2015,08,23,06,26,17.30
2015,08,23,06,27,17.30
2015,08,23,06,28,17.30
2015,08,23,06,29,17.30
2015,08,23,06,30,17.30
2015,08,23,06,31,17.30
2015,08,23,06,32,17.30
2015,08,23,06,33,17.30
2015,08,23,06,34,17.30
2015,08,23,06,35,17.30
2015,08,23,06,36,17.30
2015,08,23,06,37,17.30
2015,08,23,06,38,17.40
2015,08,23,06,39,17.40
2015,08,23,06,40,17.40
2015,08,23,06,41,17.40
2015,08,23,06,42,17.40
2015,08,23,06,43,17.40
2015,08,23,06,44,17.40
2015,08,23,06,45,17.50
2015,08,23,06,46,17.50
2015,08,23,06,47,17.50
2015,08,23,06,48,17.50
2015,08,23,06,49,17.50
2015,08,23,06,50,17.50
2015,08,23,06,51,17.50
2015,08,23,06,52,17.60
2015,08,23,06,53,17.60
2015,08,23,06,54,17.60
2015,08,23,06,55,17.60
2015,08,23,06,56,17.60
2015,08,23,06,57,17.60
2015,08,23,06,58,17.70
2015,08,23,06,59,17.70
2015,08,23,07,00,17.70
2015,08,23,07,01,17.70
2015,08,23,07,02,17.70
2015,08,23,07,03,17.80
2015,08,23,07,04,17.80
2015,08,23,07,05,17.80
2015,08,23,07,06,17.80
2015,08,23,07,07,17.80
2015,08,23,07,08,17.90
2015,08,23,07,09,17.90
2015,08,23,07,10,17.90
2015,08,23,07,11,18.00
2015,08,23,07,12,18.00
2015,08,23,07,13,18.10
2015,08,23,07,14,18.10
2015,08,23,07,15,18.10
2015,08,23,07,16,18.10
2015,08,23,07,17,18.20
2015,08,23,07,18,18.20
2015,08,23,07,19,18.20
2015,08,23,07,20,18.20
2015,08,23,07,21,18.20
2015,08,23,07,22,18.20
2015,08,23,07,23,18.20
2015,08,23,07,24,18.20
2015,08,23,07,25,18.30
2015,08,23,07,26,18.30
2015,08,23,07,27,18.30
2015,08,23,07,28,18.30
2015,08,23,07,29,18.30
2015,08,23,07,30,18.40
2015,08,23,07,31,18.40
2015,08,23,07,32,18.40
2015,08,23,07,33,18.40
2015,08,23,07,34,18.40
2015,08,23,07,35,18.40
2015,08,23,07,36,18.40
2015,08,23,07,37,18.40
2015,08,23,07,38,18.40
2015,08,23,07,39,18.40
2015,08,23,07,40,18.40
2015,08,23,07,41,18.40
2015,08,23,07,42,18.50
2015,08,23,07,43,18.50
2015,08,23,07,44,18.50
2015,08,23,07,45,18.60
2015,08,23,07,46,18.60
2015,08,23,07,47,18.60
2015,08,23,07,48,18.70
2015,08,23,07,49,18.70
2015,08,23,07,50,18.70
2015,08,23,07,51,18.70
2015,08,23,07,52,18.70
2015,08,23,07,53,18.80
2015,08,23,07,54,18.80
2015,08,23,07,55,18.80
2015,08,23,07,56,18.80
2015,08,23,07,57,18.80
2015,08,23,07,58,18.80
2015,08,23,07,59,18.70
2015,08,23,08,00,18.70
2015,08,23,08,01,18.70
2015,08,23,08,02,18.70
2015,08,23,08,03,18.70
2015,08,23,08,04,18.70
2015,08,23,08,05,18.60
2015,08,23,08,06,18.60
2015,08,23,08,07,18.60
2015,08,23,08,08,18.60
2015,08,23,08,09,18.60
2015,08,23,08,10,18.60
2015,08,23,08,11,18.60
2015,08,23,08,12,18.50
2015,08,23,08,13,18.50
2015,08,23,08,14,18.40
2015,08,23,08,15,18.40
2015,08,23,08,16,18.40
2015,08,23,08,17,18.40
2015,08,23,08,18,18.40
2015,08,23,08,19,18.40
2015,08,23,08,20,18.40
2015,08,23,08,21,18.40
2015,08,23,08,22,18.40
2015,08,23,08,23,18.40
2015,08,23,08,24,18.50
2015,08,23,08,25,18.50
2015,08,23,08,26,18.60
2015,08,23,08,27,18.60
2015,08,23,08,28,18.70
2015,08,23,08,29,18.70
2015,08,23,08,30,18.70
2015,08,23,08,31,18.80
2015,08,23,08,32,18.80
2015,08,23,08,33,18.90
2015,08,23,08,34,19.00
2015,08,23,08,35,19.10
2015,08,23,08,36,19.10
2015,08,23,08,37,19.20
2015,08,23,08,38,19.30
2015,08,23,08,39,19.40
2015,08,23,08,40,19.40
2015,08,23,08,41,19.50
2015,08,23,08,42,19.50
2015,08,23,08,43,19.60
2015,08,23,08,44,19.70
2015,08,23,08,45,19.70
2015,08,23,08,46,19.80
2015,08,23,08,47,19.80
2015,08,23,08,48,19.90
2015,08,23,08,49,19.90
2015,08,23,08,50,19.90
2015,08,23,08,51,19.90
2015,08,23,08,52,20.00
2015,08,23,08,53,20.00
2015,08,23,08,54,20.00
2015,08,23,08,55,20.10
2015,08,23,08,56,20.10
2015,08,23,08,57,20.10
2015,08,23,08,58,20.00
2015,08,23,08,59,20.00
2015,08,23,09,00,20.00
2015,08,23,09,01,20.00
2015,08,23,09,02,19.90
2015,08,23,09,03,19.90
2015,08,23,09,04,19.90
2015,08,23,09,05,19.90
2015,08,23,09,06,19.90
2015,08,23,09,07,19.90
2015,08,23,09,08,19.90
2015,08,23,09,09,19.90
2015,08,23,09,10,19.90
2015,08,23,09,11,19.90
2015,08,23,09,12,19.90
2015,08,23,09,13,19.80
2015,08,23,09,14,19.80
2015,08,23,09,15,19.90
2015,08,23,09,16,19.90
2015,08,23,09,17,19.90
2015,08,23,09,18,20.00
2015,08,23,09,19,20.00
2015,08,23,09,20,20.00
2015,08,23,09,21,20.00
2015,08,23,09,22,20.00
2015,08,23,09,23,20.00
2015,08,23,09,24,20.00
2015,08,23,09,25,20.10
2015,08,23,09,26,20.10
2015,08,23,09,27,20.10
2015,08,23,09,28,20.20
2015,08,23,09,29,20.20
2015,08,23,09,30,20.30
2015,08,23,09,31,20.30
2015,08,23,09,32,20.30
2015,08,23,09,33,20.40
2015,08,23,09,34,20.40
2015,08,23,09,35,20.40
2015,08,23,09,36,20.40
2015,08,23,09,37,20.40
2015,08,23,09,38,20.40
2015,08,23,09,39,20.40
2015,08,23,09,40,20.40
2015,08,23,09,41,20.40
2015,08,23,09,42,20.30
2015,08,23,09,43,20.30
2015,08,23,09,44,20.20
2015,08,23,09,45,20.10
2015,08,23,09,46,20.10
2015,08,23,09,47,20.00
2015,08,23,09,48,19.90
2015,08,23,09,49,19.90
2015,08,23,09,50,19.70
2015,08,23,09,51,19.60
2015,08,23,09,52,19.50
2015,08,23,09,53,19.50
2015,08,23,09,54,19.40
2015,08,23,09,55,19.30
2015,08,23,09,56,19.30
2015,08,23,09,57,19.20
2015,08,23,09,58,19.20
2015,08,23,09,59,19.20
2015,08,23,10,00,19.10
2015,08,23,10,01,19.10
2015,08,23,10,02,19.10
2015,08,23,10,03,19.20
2015,08,23,10,04,19.20
2015,08,23,10,05,19.20
2015,08,23,10,06,19.30
2015,08,23,10,07,19.30
2015,08,23,10,08,19.30
2015,08,23,10,09,19.30
2015,08,23,10,10,19.30
2015,08,23,10,11,19.40
2015,08,23,10,12,19.40
2015,08,23,10,13,19.40
2015,08,23,10,14,19.50
2015,08,23,10,15,19.60
2015,08,23,10,16,19.60
2015,08,23,10,17,19.50
2015,08,23,10,18,19.50
2015,08,23,10,19,19.50
2015,08,23,10,20,19.50
2015,08,23,10,21,19.50
2015,08,23,10,22,19.50
2015,08,23,10,23,19.50
2015,08,23,10,24,19.50
2015,08,23,10,25,19.60
2015,08,23,10,26,19.60
2015,08,23,10,27,19.60
2015,08,23,10,28,19.60
2015,08,23,10,29,19.60
2015,08,23,10,30,19.60
2015,08,23,10,31,19.60
2015,08,23,10,32,19.60
2015,08,23,10,33,19.60
2015,08,23,10,34,19.60
2015,08,23,10,35,19.70
2015,08,23,10,36,19.70
2015,08,23,10,37,19.70
2015,08,23,10,38,19.80
2015,08,23,10,39,19.80
2015,08,23,10,40,19.90
2015,08,23,10,41,20.00
2015,08,23,10,42,20.00
2015,08,23,10,43,20.00
2015,08,23,10,44,20.00
2015,08,23,10,45,20.00
2015,08,23,10,46,20.10
2015,08,23,10,47,20.10
2015,08,23,10,48,20.10
2015,08,23,10,49,20.10
2015,08,23,10,50,20.00
2015,08,23,10,51,20.00
2015,08,23,10,52,20.00
2015,08,23,10,53,20.00
2015,08,23,10,54,19.90
2015,08,23,10,55,19.90
2015,08,23,10,56,19.80
2015,08,23,10,57,19.80
2015,08,23,10,58,19.80
2015,08,23,10,59,19.80
2015,08,23,11,00,19.90
2015,08,23,11,01,20.00
2015,08,23,11,02,20.00
2015,08,23,11,03,20.00
2015,08,23,11,04,19.90
2015,08,23,11,05,19.90
2015,08,23,11,06,19.90
2015,08,23,11,07,20.00
2015,08,23,11,08,20.00
2015,08,23,11,09,20.10
2015,08,23,11,10,20.00
2015,08,23,11,11,20.00
2015,08,23,11,12,20.00
2015,08,23,11,13,19.90
2015,08,23,11,14,19.90
2015,08,23,11,15,19.90
2015,08,23,11,16,19.90
2015,08,23,11,17,19.90
2015,08,23,11,18,19.90
2015,08,23,11,19,19.90
2015,08,23,11,20,19.90
2015,08,23,11,21,19.90
2015,08,23,11,22,19.80
2015,08,23,11,23,19.80
2015,08,23,11,24,19.80
2015,08,23,11,25,19.80
2015,08,23,11,26,19.90
2015,08,23,11,27,19.90
2015,08,23,11,28,20.00
2015,08,23,11,29,20.10
2015,08,23,11,30,20.10
2015,08,23,11,31,20.10
2015,08,23,11,32,20.10
2015,08,23,11,33,20.00
2015,08,23,11,34,20.00
2015,08,23,11,35,19.90
2015,08,23,11,36,19.90
2015,08,23,11,37,19.90
2015,08,23,11,38,19.80
2015,08,23,11,39,19.80
2015,08,23,11,40,19.80
2015,08,23,11,41,19.80
2015,08,23,11,42,19.80
2015,08,23,11,43,19.80
2015,08,23,11,44,19.80
2015,08,23,11,45,19.80
2015,08,23,11,46,19.80
2015,08,23,11,47,19.70
2015,08,23,11,48,19.60
2015,08,23,11,49,19.60
2015,08,23,11,50,19.50
2015,08,23,11,51,19.50
2015,08,23,11,52,19.50
2015,08,23,11,53,19.50
2015,08,23,11,54,19.50
2015,08,23,11,55,19.50
2015,08,23,11,56,19.60
2015,08,23,11,57,19.60
2015,08,23,11,58,19.60
2015,08,23,11,59,19.70
2015,08,23,12,00,19.70
2015,08,23,12,01,19.70
2015,08,23,12,02,19.70
2015,08,23,12,03,19.60
2015,08,23,12,04,19.60
2015,08,23,12,05,19.60
2015,08,23,12,06,19.60
2015,08,23,12,07,19.60
2015,08,23,12,08,19.60
2015,08,23,12,09,19.60
2015,08,23,12,10,19.60
2015,08,23,12,11,19.70
2015,08,23,12,12,19.70
2015,08,23,12,13,19.70
2015,08,23,12,14,19.80
2015,08,23,12,15,19.80
2015,08,23,12,16,19.90
2015,08,23,12,17,19.90
2015,08,23,12,18,20.00
2015,08,23,12,19,20.00
2015,08,23,12,20,19.90
2015,08,23,12,21,19.90
2015,08,23,12,22,19.90
2015,08,23,12,23,19.90
2015,08,23,12,24,19.90
2015,08,23,12,25,19.90
2015,08,23,12,26,19.90
2015,08,23,12,27,19.90
2015,08,23,12,28,19.90
2015,08,23,12,29,19.90
2015,08,23,12,30,19.90
2015,08,23,12,31,20.00
2015,08,23,12,32,20.20
2015,08,23,12,33,20.30
2015,08,23,12,34,20.40
2015,08,23,12,35,20.50
2015,08,23,12,36,20.50
2015,08,23,12,37,20.50
2015,08,23,12,38,20.60
2015,08,23,12,39,20.60
2015,08,23,12,40,20.70
2015,08,23,12,41,20.70
2015,08,23,12,42,20.70
2015,08,23,12,43,20.70
2015,08,23,12,44,20.70
2015,08,23,12,45,20.70
2015,08,23,12,46,20.60
2015,08,23,12,47,20.50
2015,08,23,12,48,20.50
2015,08,23,12,49,20.50
2015,08,23,12,50,20.60
2015,08,23,12,51,20.60
2015,08,23,12,52,20.60
2015,08,23,12,53,20.60
2015,08,23,12,54,20.60
2015,08,23,12,55,20.60
2015,08,23,12,56,20.60
2015,08,23,12,57,20.60
2015,08,23,12,58,20.70
2015,08,23,12,59,20.60
2015,08,23,13,00,20.60
2015,08,23,13,01,20.60
2015,08,23,13,02,20.60
2015,08,23,13,03,20.60
2015,08,23,13,04,20.60
2015,08,23,13,05,20.60
2015,08,23,13,06,20.70
2015,08,23,13,07,20.70
2015,08,23,13,08,20.70
2015,08,23,13,09,20.80
2015,08,23,13,10,20.80
2015,08,23,13,11,20.80
2015,08,23,13,12,20.80
2015,08,23,13,13,20.90
2015,08,23,13,14,20.90
2015,08,23,13,15,20.80
2015,08,23,13,16,20.80
2015,08,23,13,17,20.80
2015,08,23,13,18,20.80
2015,08,23,13,19,20.80
2015,08,23,13,20,20.90
2015,08,23,13,21,20.90
2015,08,23,13,22,20.90
2015,08,23,13,23,20.90
2015,08,23,13,24,20.90
2015,08,23,13,25,21.00
2015,08,23,13,26,21.00
2015,08,23,13,27,21.00
2015,08,23,13,28,21.00
2015,08,23,13,29,21.00
2015,08,23,13,30,21.00
2015,08,23,13,31,21.00
2015,08,23,13,32,21.00
2015,08,23,13,33,20.90
2015,08,23,13,34,20.90
2015,08,23,13,35,20.90
2015,08,23,13,36,20.90
2015,08,23,13,37,20.90
2015,08,23,13,38,20.90
2015,08,23,13,39,20.90
2015,08,23,13,40,20.90
2015,08,23,13,41,20.80
2015,08,23,13,42,20.80
2015,08,23,13,43,20.80
2015,08,23,13,44,20.70
2015,08,23,13,45,20.70
2015,08,23,13,46,20.70
2015,08,23,13,47,20.70
2015,08,23,13,48,20.70
2015,08,23,13,49,20.80
2015,08,23,13,50,20.80
2015,08,23,13,51,20.90
2015,08,23,13,52,21.00
2015,08,23,13,53,21.00
2015,08,23,13,54,21.10
2015,08,23,13,55,21.10
2015,08,23,13,56,21.20
2015,08,23,13,57,21.30
2015,08,23,13,58,21.40
2015,08,23,13,59,21.40
2015,08,23,14,00,21.50
2015,08,23,14,01,21.60
2015,08,23,14,02,21.60
2015,08,23,14,03,21.70
2015,08,23,14,04,21.70
2015,08,23,14,05,21.70
2015,08,23,14,06,21.70
2015,08,23,14,07,21.60
2015,08,23,14,08,21.50
2015,08,23,14,09,21.40
2015,08,23,14,10,21.30
2015,08,23,14,11,21.30
2015,08,23,14,12,21.30
2015,08,23,14,13,21.20
2015,08,23,14,14,21.20
2015,08,23,14,15,21.30
2015,08,23,14,16,21.40
2015,08,23,14,17,21.40
2015,08,23,14,18,21.50
2015,08,23,14,19,21.70
2015,08,23,14,20,21.80
2015,08,23,14,21,21.80
2015,08,23,14,22,21.90
2015,08,23,14,23,21.90
2015,08,23,14,24,21.90
2015,08,23,14,25,21.90
2015,08,23,14,26,21.90
2015,08,23,14,27,21.90
2015,08,23,14,28,21.90
2015,08,23,14,29,22.10
2015,08,23,14,30,22.10
2015,08,23,14,31,22.20
2015,08,23,14,32,22.20
2015,08,23,14,33,22.20
2015,08,23,14,34,22.20
2015,08,23,14,35,22.20
2015,08,23,14,36,22.20
2015,08,23,14,37,22.20
2015,08,23,14,38,22.20
2015,08,23,14,39,22.20
2015,08,23,14,40,22.20
2015,08,23,14,41,22.10
2015,08,23,14,42,22.10
2015,08,23,14,43,22.10
2015,08,23,14,44,22.10
2015,08,23,14,45,22.00
2015,08,23,14,46,22.00
2015,08,23,14,47,22.10
2015,08,23,14,48,22.10
2015,08,23,14,49,22.10
2015,08,23,14,50,22.00
2015,08,23,14,51,22.00
2015,08,23,14,52,21.90
2015,08,23,14,53,21.90
2015,08,23,14,54,21.90
2015,08,23,14,55,21.90
2015,08,23,14,56,21.90
2015,08,23,14,57,21.90
2015,08,23,14,58,21.90
2015,08,23,14,59,22.00
2015,08,23,15,00,22.00
2015,08,23,15,01,22.10
2015,08,23,15,02,22.10
2015,08,23,15,03,22.10
2015,08,23,15,04,22.10
2015,08,23,15,05,22.10
2015,08,23,15,06,22.00
2015,08,23,15,07,21.90
2015,08,23,15,08,21.90
2015,08,23,15,09,21.80
2015,08,23,15,10,21.70
2015,08,23,15,11,21.70
2015,08,23,15,12,21.70
2015,08,23,15,13,21.70
2015,08,23,15,14,21.70
2015,08,23,15,15,21.80
2015,08,23,15,16,21.80
2015,08,23,15,17,21.80
2015,08,23,15,18,21.80
2015,08,23,15,19,21.90
2015,08,23,15,20,21.90
2015,08,23,15,21,21.90
2015,08,23,15,22,21.90
2015,08,23,15,23,22.00
2015,08,23,15,24,22.00
2015,08,23,15,25,22.00
2015,08,23,15,26,22.10
2015,08,23,15,27,22.10
2015,08,23,15,28,22.10
2015,08,23,15,29,22.10
2015,08,23,15,30,22.10
2015,08,23,15,31,22.10
2015,08,23,15,32,22.10
2015,08,23,15,33,22.10
2015,08,23,15,34,22.10
2015,08,23,15,35,22.10
2015,08,23,15,36,22.10
2015,08,23,15,37,22.10
2015,08,23,15,38,22.00
2015,08,23,15,39,22.00
2015,08,23,15,40,21.90
2015,08,23,15,41,21.80
2015,08,23,15,42,21.80
2015,08,23,15,43,21.80
2015,08,23,15,44,21.80
2015,08,23,15,45,21.80
2015,08,23,15,46,21.80
2015,08,23,15,47,21.80
2015,08,23,15,48,21.80
2015,08,23,15,49,21.90
2015,08,23,15,50,22.00
2015,08,23,15,51,22.00
2015,08,23,15,52,22.00
2015,08,23,15,53,22.00
2015,08,23,15,54,22.00
2015,08,23,15,55,22.00
2015,08,23,15,56,22.00
2015,08,23,15,57,22.00
2015,08,23,15,58,21.90
2015,08,23,15,59,21.90
2015,08,23,16,00,21.90
2015,08,23,16,01,21.90
2015,08,23,16,02,21.80
2015,08,23,16,03,21.80
2015,08,23,16,04,21.70
2015,08,23,16,05,21.70
2015,08,23,16,06,21.70
2015,08,23,16,07,21.70
2015,08,23,16,08,21.70
2015,08,23,16,09,21.70
2015,08,23,16,10,21.70
2015,08,23,16,11,21.70
2015,08,23,16,12,21.70
2015,08,23,16,13,21.60
2015,08,23,16,14,21.60
2015,08,23,16,15,21.60
2015,08,23,16,16,21.60
2015,08,23,16,17,21.60
2015,08,23,16,18,21.60
2015,08,23,16,19,21.60
2015,08,23,16,20,21.60
2015,08,23,16,21,21.60
2015,08,23,16,22,21.60
2015,08,23,16,23,21.60
2015,08,23,16,24,21.60
2015,08,23,16,25,21.70
2015,08,23,16,26,21.70
2015,08,23,16,27,21.70
2015,08,23,16,28,21.70
2015,08,23,16,29,21.70
2015,08,23,16,30,21.70
2015,08,23,16,31,21.70
2015,08,23,16,32,21.60
2015,08,23,16,33,21.60
2015,08,23,16,34,21.70
2015,08,23,16,35,21.70
2015,08,23,16,36,21.80
2015,08,23,16,37,21.90
2015,08,23,16,38,21.90
2015,08,23,16,39,22.10
2015,08,23,16,40,22.20
2015,08,23,16,41,22.20
2015,08,23,16,42,22.30
2015,08,23,16,43,22.40
2015,08,23,16,44,22.40
2015,08,23,16,45,22.50
2015,08,23,16,46,22.50
2015,08,23,16,47,22.60
2015,08,23,16,48,22.60
2015,08,23,16,49,22.60
2015,08,23,16,50,22.60
2015,08,23,16,51,22.60
2015,08,23,16,52,22.70
2015,08,23,16,53,22.70
2015,08,23,16,54,22.80
2015,08,23,16,55,22.80
2015,08,23,16,56,22.80
2015,08,23,16,57,22.70
2015,08,23,16,58,22.70
2015,08,23,16,59,22.70
2015,08,23,17,00,22.70
2015,08,23,17,01,22.70
2015,08,23,17,02,22.70
2015,08,23,17,03,22.70
2015,08,23,17,04,22.80
2015,08,23,17,05,22.80
2015,08,23,17,06,22.90
2015,08,23,17,07,22.90
2015,08,23,17,08,22.80
2015,08,23,17,09,22.80
2015,08,23,17,10,22.80
2015,08,23,17,11,22.80
2015,08,23,17,12,22.70
2015,08,23,17,13,22.70
2015,08,23,17,14,22.70
2015,08,23,17,15,22.60
2015,08,23,17,16,22.60
2015,08,23,17,17,22.60
2015,08,23,17,18,22.60
2015,08,23,17,19,22.60
2015,08,23,17,20,22.60
2015,08,23,17,21,22.60
2015,08,23,17,22,22.60